Погода в Сукре

Боливия     19°02′32″S   65°16′19″W
темп.,
°C
ветер,
м/с
пор.,
м/с
влажн.,
%
обл.,
%
осадки,
мм/ч
давл.,
гПа
погр.,
м
12 мая, ср
ср1223:00+10с238780 0.1 1017172
02:00+9ссв229198 0.1 1017274
05:00+9ссв229399 0.1 1017237
08:00+9св229393 0.1 1019291
11:00+11ссв338491 0.1 1020468
14:00+14ссв336791 0.1 1014902
17:00+13ссв346697 0.0 1013895
20:00+12св227489 0.3 1015383
13 мая, чт
чт1323:00+10ссв3387100 0.1 1018361
02:00+9ссв2294100 0.8 1018278
05:00+8св119390 0.1 1017234
08:00+9св228998 0.2 1019243
11:00+13ссв227052 0.0 1016728
14:00+16ссв33583 0.3 1010823
17:00+17св345511 0.3 1009659
20:00+14ссв23665 0.3 1012170
14 мая, пт
пт1423:00+12св22770 0.0 1016100
02:00+9ссв229482 0.0 1018124
05:00+10ссв229191 0.0 1017294
08:00+10ссв218476 0.1 1020246
11:00+15св22530 0.0 10171098
14:00+18св33400 0.0 10121523
17:00+17ссв32440 0.0 10111131
20:00+14ссв23590 0.0 1014176
15 мая, сб
сб1523:00+12ссв22680 0.0 1016117
02:00+10ссв228295 0.0 101796
05:00+8ссв119254 0.0 101774
08:00+10ссв1184100 0.0 1019280
11:00+12св227093 0.0 1018693
14:00+16св3352100 0.0 1013953
17:00+15св33569 0.0 10131018
20:00+12ссв33741 0.2 1017212
16 мая, вс
вс1623:00+10ссв128219 0.0 1019149
02:00+10ссв228097 0.0 1018281
05:00+10св127586 0.1 1018279
08:00+11с12754 0.1 1020266
11:00+15ссв335320 0.0 10181285
14:00+18св434419 0.0 10131550
17:00+16ссв43482 0.0 10131248
20:00+13св22601 0.2 1016272